FW0960 Weather Reports


time (UTC)temp
C
wind
direction
speed
KPH
gust
KPH
rain 1hr
cm
rain 24hr
cm
rain mn
cm
humidity
%
barometer
mb
20211027190601 18 194 6.4 22.5 0.00 0.03 0.03 75 1005.9
20211027190100 18 204 6.4 22.5 0.00 0.03 0.03 74 1005.8
20211027185601 17 194 6.4 22.5 0.00 0.03 0.03 75 1005.6
20211027185101 17 178 8.0 16.1 0.00 0.03 0.03 76 1005.6
20211027184607 17 188 8.0 17.7 0.00 0.03 0.03 76 1005.6
20211027184100 17 217 6.4 17.7 0.00 0.03 0.03 76 1005.5
20211027183559 17 202 6.4 19.3 0.00 0.03 0.03 76 1005.6
20211027183100 17 214 6.4 19.3 0.00 0.03 0.03 77 1005.5
20211027182607 17 195 8.0 22.5 0.00 0.03 0.03 77 1005.6
20211027182057 17 277 9.7 25.7 0.00 0.03 0.03 75 1005.6
20211027181604 17 200 8.0 25.7 0.00 0.03 0.03 76 1005.5
20211027181113 17 224 9.7 22.5 0.00 0.03 0.03 75 1005.7
20211027180555 17 197 8.0 22.5 0.00 0.03 0.03 76 1005.5
20211027180055 17 215 4.8 17.7 0.00 0.03 0.03 76 1005.5
20211027175555 17 225 4.8 17.7 0.00 0.03 0.03 76 1005.5
20211027175053 17 203 4.8 16.1 0.00 0.03 0.03 76 1005.4
20211027174556 17 213 8.0 19.3 0.00 0.03 0.03 77 1005.3
20211027173550 17 209 9.7 30.6 0.00 0.03 0.03 75 1005.3
20211027173042 17 171 8.0 29.0 0.00 0.03 0.03 77 1005.2
20211027172545 17 189 8.0 25.7 0.00 0.03 0.03 77 1005.3
20211027172041 17 201 9.7 27.4 0.00 0.03 0.03 77 1005.3
20211027171539 17 198 8.0 27.4 0.00 0.03 0.03 76 1005.4
20211027171039 17 200 8.0 25.7 0.00 0.03 0.03 78 1005.2
20211027170539 17 217 8.0 25.7 0.00 0.03 0.03 77 1005.3
20211027170034 17 198 9.7 22.5 0.00 0.03 0.03 77 1005.4
20211027165533 17 171 9.7 22.5 0.00 0.03 0.03 77 1005.3
20211027165034 17 195 6.4 17.7 0.00 0.03 0.03 78 1005.3
20211027164533 17 234 8.0 20.9 0.00 0.03 0.03 77 1005.2
20211027164032 17 171 8.0 29.0 0.00 0.03 0.03 78 1005.2
20211027163531 17 197 8.0 29.0 0.00 0.03 0.03 78 1005.1
20211027162529 17 175 9.7 17.7 0.00 0.03 0.03 78 1005.1
20211027162029 17 209 9.7 27.4 0.00 0.03 0.03 78 1005.1
20211027161530 17 205 9.7 27.4 0.00 0.03 0.03 78 1005.2
20211027161032 17 196 11.3 20.9 0.00 0.03 0.03 78 1005.1
20211027160532 17 240 12.9 24.1 0.00 0.03 0.03 78 1005.0
20211027160029 17 206 11.3 24.1 0.00 0.03 0.03 78 1004.9
20211027155529 17 208 9.7 22.5 0.00 0.03 0.03 78 1004.9
20211027155032 17 169 9.7 22.5 0.00 0.03 0.03 79 1005.0
20211027154531 17 229 9.7 27.4 0.00 0.03 0.03 79 1004.9
20211027154029 16 245 8.0 27.4 0.00 0.03 0.03 79 1004.9
20211027153529 16 217 8.0 20.9 0.00 0.03 0.03 80 1004.9
20211027153029 16 223 9.7 22.5 0.00 0.03 0.03 80 1004.9
20211027152029 16 214 9.7 25.7 0.00 0.03 0.03 80 1004.8
20211027151532 16 208 9.7 25.7 0.00 0.03 0.03 81 1004.7
20211027151029 16 213 9.7 19.3 0.00 0.03 0.03 82 1004.6
20211027150532 16 201 9.7 24.1 0.00 0.03 0.03 82 1004.7
20211027150029 16 229 8.0 24.1 0.00 0.03 0.03 82 1004.6
20211027145530 16 236 8.0 19.3 0.00 0.03 0.03 83 1004.4
20211027145030 15 164 6.4 19.3 0.00 0.03 0.03 83 1004.4
20211027144528 15 215 6.4 17.7 0.00 0.03 0.03 84 1004.4
20211027144030 15 217 6.4 17.7 0.00 0.03 0.03 85 1004.3
20211027143531 15 215 6.4 17.7 0.00 0.03 0.03 85 1004.3
20211027143035 15 209 6.4 17.7 0.00 0.03 0.03 86 1004.2
20211027142524 15 213 4.8 14.5 0.00 0.03 0.03 86 1004.1
20211027142024 15 202 4.8 16.1 0.00 0.03 0.03 87 1004.1
20211027141525 14 213 4.8 16.1 0.00 0.03 0.03 87 1004.1
20211027141024 14 198 4.8 14.5 0.00 0.03 0.03 87 1004.1
20211027140529 14 238 6.4 14.5 0.00 0.03 0.03 87 1004.0
20211027140026 14 223 6.4 17.7 0.00 0.03 0.03 88 1004.0
20211027135521 14 236 8.0 17.7 0.00 0.03 0.03 88 1003.9
20211027135024 14 202 8.0 17.7 0.00 0.03 0.03 88 1003.9
20211027134520 13 171 8.0 17.7 0.00 0.03 0.03 88 1004.0
20211027134024 13 199 6.4 19.3 0.00 0.03 0.03 89 1003.9
20211027133523 13 181 4.8 19.3 0.00 0.05 0.03 89 1003.9
20211027133022 13 219 4.8 17.7 0.00 0.05 0.03 89 1003.8
20211027132522 13 117 4.8 19.3 0.00 0.05 0.03 89 1003.7
20211027132017 13 190 6.4 19.3 0.00 0.05 0.03 89 1003.5
20211027131014 13 120 6.4 17.7 0.00 0.05 0.03 91 1003.6
20211027130514 13 223 6.4 17.7 0.00 0.05 0.03 91 1003.6
20211027130013 13 206 6.4 14.5 0.00 0.05 0.03 91 1003.5
20211027125511 13 205 4.8 12.9 0.00 0.05 0.03 92 1003.6
20211027125009 13 261 4.8 16.1 0.00 0.05 0.03 92 1003.5
20211027124510 12 177 4.8 16.1 0.00 0.05 0.03 93 1003.5
20211027124008 12 207 3.2 12.9 0.00 0.05 0.03 93 1003.5
20211027123508 12 288 3.2 12.9 0.00 0.05 0.03 94 1003.5
20211027122507 12 169 3.2 11.3 0.00 0.05 0.03 94 1003.5
20211027122006 12 186 3.2 8.0 0.00 0.05 0.03 94 1003.3
20211027121004 12 92 3.2 14.5 0.00 0.05 0.03 94 1003.3
20211027120504 12 212 3.2 11.3 0.00 0.05 0.03 95 1003.2
20211027115500 12 192 1.6 8.0 0.00 0.05 0.03 95 1003.1
20211027114501 12 144 3.2 9.7 0.00 0.05 0.03 95 1002.9
20211027114001 12 217 4.8 9.7 0.00 0.05 0.03 95 1002.9
20211027113502 11 184 3.2 9.7 0.00 0.05 0.03 96 1003.0
20211027113002 11 177 1.6 11.3 0.00 0.05 0.03 96 1002.9
20211027112503 11 136 3.2 11.3 0.00 0.05 0.03 96 1002.9
20211027111958 11 206 3.2 16.1 0.00 0.05 0.03 96 1002.8
20211027111458 11 205 3.2 16.1 0.00 0.05 0.03 96 1002.8
20211027111001 11 161 3.2 11.3 0.00 0.05 0.03 96 1002.8
20211027110500 11 215 3.2 11.3 0.00 0.05 0.03 96 1002.8
20211027105955 11 192 3.2 14.5 0.00 0.05 0.03 96 1002.7
20211027105459 11 234 3.2 14.5 0.00 0.05 0.03 96 1002.8
20211027104953 11 204 3.2 12.9 0.00 0.05 0.03 96 1002.7
20211027103959 11 116 1.6 8.0 0.00 0.05 0.03 96 1002.5
20211027102454 11 215 3.2 9.7 0.03 0.05 0.03 96 1002.5
20211027101950 11 197 1.6 6.4 0.03 0.05 0.03 96 1002.5
20211027101449 11 135 1.6 6.4 0.03 0.05 0.03 96 1002.5
20211027100447 11 192 3.2 11.3 0.03 0.05 0.03 96 1002.4
20211027095944 11 184 1.6 8.0 0.03 0.05 0.03 96 1002.4
20211027094938 10 192 1.6 6.4 0.03 0.05 0.03 96 1002.3
20211027094440 10 171 1.6 8.0 0.03 0.05 0.03 96 1002.3
20211027093936 10 199 1.6 8.0 0.03 0.08 0.03 96 1002.3
20211027093436 10 123 3.2 9.7 0.00 0.05 0.00 96 1002.4
20211027091433 10 182 3.2 11.3 0.00 0.05 0.00 96 1002.1
20211027090932 10 202 3.2 8.0 0.00 0.05 0.00 96 1002.1
20211027085931 10 104 1.6 12.9 0.00 0.05 0.00 95 1002.1
20211027085432 10 200 1.6 12.9 0.00 0.05 0.00 95 1002.2
20211027084929 10 219 1.6 9.7 0.00 0.08 0.00 95 1002.1
20211027084430 10 163 3.2 14.5 0.00 0.08 0.00 95 1002.0
20211027083430 10 188 3.2 8.0 0.00 0.10 0.00 95 1002.1
20211027082930 10 211 3.2 11.3 0.00 0.13 0.00 95 1001.9
20211027081918 10 219 3.2 14.5 0.00 0.13 0.00 94 1001.8
20211027080916 10 92 1.6 9.7 0.00 0.15 0.00 94 1001.7
20211027075416 10 218 3.2 16.1 0.00 0.15 0.00 92 1001.6
20211027074916 10 202 3.2 16.1 0.00 0.18 0.00 91 1001.6
20211027073913 10 131 4.8 16.1 0.00 0.18 0.00 90 1001.5
20211027073415 10 200 3.2 14.5 0.00 0.20 0.00 90 1001.4
20211027072916 10 223 3.2 14.5 0.00 0.23 0.00 89 1001.4
20211027072414 10 232 4.8 16.1 0.00 0.23 0.00 87 1001.4
20211027071416 10 167 4.8 14.5 0.00 0.30 0.00 86 1001.3
20211027070915 10 204 6.4 14.5 0.00 0.33 0.00 85 1001.2
20211027070413 11 99 6.4 17.7 0.00 0.36 0.00 84 1001.2
20211027065914 11 157 6.4 17.7 0.00 0.38 0.00 84 1001.2
20211027065414 11 211 4.8 17.7 0.00 0.38 0.00 83 1001.1
20211027064919 11 208 4.8 17.7 0.00 0.41 0.00 83 1001.1
20211027064410 11 221 3.2 17.7 0.00 0.43 0.00 83 1001.0
20211027063912 11 169 6.4 17.7 0.00 0.48 0.00 83 1000.8
20211027063409 11 200 8.0 27.4 0.00 0.56 0.00 82 1000.8
20211027062910 11 223 8.0 27.4 0.00 0.61 0.00 81 1000.8
20211027062410 11 195 6.4 27.4 0.00 0.69 0.00 81 1000.7
20211027061916 11 208 4.8 14.5 0.00 0.86 0.00 81 1000.7
20211027060908 11 213 3.2 11.3 0.00 1.17 0.00 80 1000.7
20211027060413 11 194 3.2 11.3 0.00 1.27 0.00 80 1000.6
20211027055405 11 178 6.4 14.5 0.00 1.50 0.00 81 1000.7
20211027054907 11 238 4.8 14.5 0.00 1.55 0.00 80 1000.6
20211027054404 11 223 3.2 16.1 0.00 1.60 0.00 80 1000.6
20211027053905 11 87 3.2 16.1 0.00 1.70 0.00 80 1000.7
20211027053405 11 133 3.2 19.3 0.00 1.70 0.00 80 1000.5
20211027052904 11 192 6.4 19.3 0.00 1.78 0.00 79 1000.5
20211027052401 11 180 6.4 19.3 0.00 1.93 0.00 79 1000.5
20211027051903 11 197 6.4 17.7 0.00 2.01 0.00 79 1000.6
20211027051402 11 233 4.8 14.5 0.00 2.06 0.00 78 1000.6
20211027050403 11 105 4.8 17.7 0.00 2.11 0.00 79 1000.6
20211027045905 11 203 6.4 17.7 0.00 2.21 0.00 78 1000.5
20211027044854 11 205 4.8 17.7 0.00 2.39 0.00 77 1000.5
20211027044355 11 190 4.8 24.1 0.00 2.39 0.00 77 1000.7
20211027043853 11 198 6.4 24.1 0.00 2.39 0.00 77 1000.5
20211027043353 11 224 6.4 30.6 0.00 2.39 0.00 77 1000.6
20211027042356 11 186 4.8 16.1 0.00 2.39 0.00 77 1000.6
20211027041851 11 184 4.8 16.1 0.00 2.39 0.00 77 1000.5
20211027035852 11 111 4.8 22.5 0.00 2.41 2.41 77 1000.4
20211027035351 11 187 4.8 25.7 0.00 2.41 2.41 77 1000.5
20211027034854 11 145 6.4 25.7 0.00 2.41 2.41 76 1000.5
20211027034347 11 227 4.8 17.7 0.00 2.41 2.41 76 1000.5
20211027033853 11 194 6.4 20.9 0.00 2.41 2.41 77 1000.4
20211027032845 11 148 4.8 19.3 0.00 2.41 2.41 77 1000.6
20211027032345 11 252 3.2 20.9 0.00 2.41 2.41 76 1000.7
20211027031850 11 187 4.8 20.9 0.00 2.41 2.41 76 1000.7
20211027030340 11 226 3.2 12.9 0.00 2.41 2.41 76 1001.0
20211027025839 11 177 3.2 17.7 0.00 2.41 2.41 76 1000.8
20211027024842 11 178 4.8 17.7 0.00 2.41 2.41 77 1000.9
20211027023838 11 227 4.8 20.9 0.00 2.41 2.41 76 1000.8
20211027023338 11 197 4.8 20.9 0.00 2.41 2.41 76 1001.0
20211027022837 11 224 3.2 19.3 0.00 2.41 2.41 76 1000.9
20211027022342 11 98 3.2 22.5 0.00 2.41 2.41 77 1000.8
20211027021837 11 236 4.8 22.5 0.00 2.41 2.41 77 1000.9
20211027021341 11 188 3.2 19.3 0.00 2.41 2.41 78 1001.0
20211027020834 11 178 3.2 19.3 0.00 2.41 2.41 78 1001.0
20211027020335 11 94 1.6 14.5 0.00 2.41 2.41 79 1000.9
20211027015335 11 199 1.6 16.1 0.00 2.41 2.41 80 1001.1
20211027014832 11 169 3.2 20.9 0.00 2.41 2.41 80 1001.2
20211027014331 11 97 3.2 20.9 0.00 2.41 2.41 80 1001.1
20211027013833 11 126 1.6 12.9 0.00 2.41 2.41 80 1001.2
20211027013332 11 196 1.6 12.9 0.00 2.41 2.41 81 1001.2
20211027012837 11 217 1.6 12.9 0.00 2.41 2.41 80 1001.3
20211027012332 11 121 3.2 12.9 0.00 2.41 2.41 80 1001.2
20211027011834 11 198 3.2 12.9 0.00 2.41 2.41 79 1001.2
20211027011329 11 223 3.2 12.9 0.00 2.41 2.41 78 1001.2
20211027010835 12 133 3.2 17.7 0.00 2.41 2.41 77 1001.1
20211027010337 12 218 4.8 17.7 0.00 2.41 2.41 76 1001.1
20211027005828 12 81 4.8 16.1 0.00 2.41 2.41 77 1001.3
20211027005329 12 165 4.8 20.9 0.00 2.41 2.41 76 1001.0
20211027004829 12 167 6.4 20.9 0.00 2.41 2.41 76 1001.1
20211027004330 12 219 4.8 17.7 0.00 2.41 2.41 76 1001.1
20211027003828 12 209 3.2 14.5 0.00 2.41 2.41 75 1001.1
20211027003332 12 112 4.8 16.1 0.00 2.41 2.41 75 1001.1
20211027002829 12 197 4.8 22.5 0.00 2.41 2.41 75 1000.9
20211027002331 12 125 6.4 22.5 0.00 2.41 2.41 75 1000.9
20211027001831 12 150 6.4 19.3 0.00 2.41 2.41 75 1000.9
20211027001330 12 206 6.4 20.9 0.00 2.41 2.41 75 1000.9
20211027000332 12 209 4.8 16.1 0.00 2.41 2.41 75 1000.8
20211026235830 12 224 4.8 14.5 0.00 2.41 2.41 75 1000.8
20211026235328 12 195 4.8 22.5 0.00 2.41 2.41 75 1000.9
20211026234329 12 236 4.8 16.1 0.00 2.41 2.41 75 1000.8
20211026233832 12 223 4.8 16.1 0.00 2.41 2.41 75 1000.8
20211026233330 12 99 4.8 20.9 0.00 2.41 2.41 75 1000.7
20211026232829 12 97 3.2 20.9 0.00 2.41 2.41 75 1000.6
20211026232332 12 141 3.2 16.1 0.00 2.44 2.41 76 1000.6
20211026231830 12 168 3.2 14.5 0.00 2.51 2.41 75 1000.6
20211026231329 13 126 4.8 19.3 0.00 2.51 2.41 75 1000.5
20211026230815 13 113 4.8 19.3 0.00 2.51 2.41 74 1000.7
20211026230311 13 203 4.8 17.7 0.00 2.51 2.41 75 1000.6
20211026225810 13 213 4.8 17.7 0.00 2.51 2.41 75 1000.8
20211026225305 13 133 6.4 29.0 0.00 2.51 2.41 74 1000.6
20211026224755 13 250 6.4 29.0 0.00 2.51 2.41 74 1000.5
20211026224258 13 90 6.4 27.4 0.00 2.51 2.41 75 1000.5
20211026223752 13 111 6.4 27.4 0.00 2.51 2.41 73 1000.3
20211026223253 13 105 4.8 27.4 0.00 2.51 2.41 75 1000.3
20211026222755 13 155 3.2 19.3 0.00 2.51 2.41 74 1000.2
20211026222253 13 152 4.8 25.7 0.00 2.51 2.41 74 1000.1
20211026221756 13 209 6.4 25.7 0.00 2.51 2.41 73 1000.1
20211026221254 13 128 4.8 25.7 0.00 2.51 2.41 73 1000.1
20211026220749 13 223 4.8 25.7 0.00 2.51 2.41 73 999.9
20211026220251 14 107 6.4 22.5 0.00 2.51 2.41 73 999.9
20211026215749 14 184 8.0 25.7 0.00 2.51 2.41 73 999.8
20211026215249 14 133 6.4 25.7 0.00 2.51 2.41 73 999.7
20211026214749 14 83 4.8 25.7 0.00 2.51 2.41 74 999.6
20211026214245 14 209 6.4 29.0 0.00 2.51 2.41 74 999.6
20211026213747 14 148 8.0 29.0 0.00 2.51 2.41 73 999.4
20211026213247 14 212 6.4 25.7 0.00 2.51 2.41 73 999.4
20211026212745 15 181 6.4 27.4 0.00 2.51 2.41 73 999.2
20211026212246 15 200 8.0 27.4 0.00 2.51 2.41 74 999.1
20211026211749 15 172 8.0 22.5 0.00 2.51 2.41 73 999.1
20211026211243 15 115 6.4 22.5 0.00 2.51 2.41 73 999.1
20211026210748 15 222 6.4 22.5 0.00 2.51 2.41 73 999.0
20211026210244 15 129 3.2 19.3 0.00 2.51 2.41 74 998.8
20211026205740 15 159 3.2 16.1 0.00 2.51 2.41 74 998.7
20211026205244 15 131 6.4 17.7 0.00 2.51 2.41 73 998.6
20211026204744 16 157 8.0 25.7 0.00 2.51 2.41 72 998.4
20211026204244 16 211 9.7 25.7 0.00 2.51 2.41 72 998.2
20211026203740 16 209 6.4 20.9 0.00 2.51 2.41 72 998.3
20211026203240 16 166 6.4 20.9 0.00 2.51 2.41 72 998.1
20211026202738 17 147 6.4 25.7 0.00 2.51 2.41 71 998.0
20211026202234 17 95 3.2 24.1 0.00 2.51 2.41 71 998.0
20211026201738 17 271 3.2 24.1 0.00 2.51 2.41 74 997.7
20211026200232 17 200 4.8 19.3 0.00 2.51 2.41 72 997.6
20211026195232 18 103 6.4 19.3 0.00 2.51 2.41 72 997.5
20211026194729 18 91 6.4 19.3 0.00 2.51 2.41 73 997.6
20211026194231 18 239 6.4 19.3 0.00 2.51 2.41 74 997.4
20211026193729 18 96 6.4 19.3 0.00 2.51 2.41 74 997.3
20211026192729 18 192 4.8 14.5 0.00 2.51 2.41 76 997.1
20211026192232 18 122 3.2 14.5 0.00 2.51 2.41 78 997.2
20211026191732 18 166 4.8 16.1 0.00 2.51 2.41 78 997.1
20211026191230 18 215 4.8 19.3 0.00 2.51 2.41 77 997.1